Regional Weather Roundup
Issued by NWS Boston, MA

Home | Current Version | Previous Version | Text Only | Print | Product List | Glossary On
Versions: 1 2 3 4 5 6 7 8 9 10 11 12 13 14 15 16 17 18 19 20 21 22 23 24 25 26 27 28 29 30 31 32 33 34 35 36 37 38 39 40 41 42 43 44 45 46 47 48 49 50
290
ASUS41 KBOX 290610
RWRBOX

REGIONAL WEATHER ROUNDUP
NATIONAL WEATHER SERVICE TAUNTON MA
200 AM EDT FRI JUL 29 2016

NOTE:  "FAIR" INDICATES FEW OR NO CLOUDS BELOW 12,000 FEET WITH NO
SIGNIFICANT WEATHER AND/OR OBSTRUCTIONS TO VISIBILITY.

MAZALL-290700-
EASTERN MASSACHUSETTS

CITY           SKY/WX    TMP DP  RH WIND       PRES   REMARKS
BOSTON         CLOUDY    78  72  81 SW10      29.85
6HR MIN TEMP:  78; 6HR MAX TEMP:  83;

BEVERLY        CLOUDY    75  71  87 CALM      29.84S
LAWRENCE       CLOUDY    75  70  84 NE3       29.87S
BEDFORD        CLOUDY    77  65  66 SW5       29.84S
BLUE HILL        N/A     73  72  96 S8        29.87S
NORWOOD        MOCLDY    75  72  90 SE3       29.85F
MARSHFIELD     CLOUDY    75  73  94 SW7       29.85F
PLYMOUTH       CLOUDY    74  72  93 S6        29.87F
TAUNTON        CLOUDY    75  72  90 CALM      29.86S
NEW BEDFORD    CLOUDY    77  74  90 S7        29.87S
$$

MAZALL-290700-
CAPE COD AND THE ISLANDS

CITY           SKY/WX    TMP DP  RH WIND       PRES   REMARKS
FALMOUTH       CLOUDY    73  73 100 CALM      29.89S
HYANNIS        CLOUDY    75  73  93 SW7       29.88S
CHATHAM        FOG       73  73 100 SW6       29.89F VSB 1/2
PROVINCETOWN   MOCLDY    74  73  97 S9        29.87F
NANTUCKET      CLOUDY    70  69  97 CALM      29.89S FOG
MARTHAS VNYRD  FOG       74  73  97 S6        29.89S VSB 1/4
$$

MAZALL-290700-
CENTRAL AND WESTERN MASSACHUSETTS

CITY           SKY/WX    TMP DP  RH WIND       PRES   REMARKS
WORCESTER      LGT RAIN  72  68  87 W7        29.90S
6HR MIN TEMP:  71; 6HR MAX TEMP:  74; 6HR PCP: TRACE;

FITCHBURG      MOCLDY    77  64  64 CALM      29.88S
ORANGE         CLOUDY    75  66  73 CALM      29.89R
SPRINGFIELD    NOT AVBL
WESTFIELD      CLOUDY    78  66  66 W7        29.87R
NORTH ADAMS    CLOUDY    69  63  81 SE3       29.91S
PITTSFIELD     RAIN      68  66  93 SW9       29.93S FOG
$$

RIZALL-290700-
RHODE ISLAND

CITY           SKY/WX    TMP DP  RH WIND       PRES   REMARKS
PROVIDENCE     CLOUDY    76  73  91 S7        29.87F
6HR MIN TEMP:  76; 6HR MAX TEMP:  80;

NEWPORT        FOG       74  74 100 S8        29.88S VSB 1/4
BLOCK ISLAND   CLOUDY    76  75  97 S6        29.88F FOG
SMITHFIELD     CLOUDY    73  70  88 CALM      29.88F
WESTERLY       FOG       74  71  91 S5        29.88S VSB 1/4
$$

CTZALL-290700-
CONNECTICUT

CITY           SKY/WX    TMP DP  RH WIND       PRES   REMARKS
BRADLEY INTL   LGT RAIN  78  67  68 W5        29.87S
6HR MIN TEMP:  78; 6HR MAX TEMP:  85; 6HR PCP: TRACE;

HARTFORD       CLOUDY    81  70  69 W6        29.86S
BRIDGEPORT     LGT RAIN  79  70  74 N6        29.86S
DANBURY        CLOUDY    73  70  90 CALM      29.90S
GROTON         LGT RAIN  74  73  97 CALM      29.85F VSB 1/4
NEW HAVEN      CLOUDY    77  70  79 CALM      29.87S
CHESTER        LGT RAIN  75  73  94 CALM      29.88F
MERIDEN        LGT RAIN  76  71  85 CALM      29.87F
WILLIMANTIC    CLOUDY    77  73  87 CALM      29.87F
OXFORD           N/A     73  64  73 NW5       29.92S
$$

MEZ002-015-021-024-NHZ003-005-008-011-012-014-VTZ005-008-290700-
NORTHERN NEW ENGLAND

CITY           SKY/WX    TMP DP  RH WIND       PRES   REMARKS
PORTLAND ME    CLOUDY    70  65  84 N5        29.87F
6HR MIN TEMP:  70; 6HR MAX TEMP:  78;

BANGOR ME      CLOUDY    71  66  84 N5        29.88F
CONCORD NH     CLOUDY    74  66  76 CALM      29.87F
MANCHESTER NH  CLOUDY    77  65  66 N7        29.85F
NASHUA NH      CLOUDY    76  66  71 NW6       29.86F
PORTSMOUTH NH  NOT AVBL
JAFFREY NH     CLOUDY    70  64  81 CALM      29.91F
KEENE NH       CLOUDY    70  66  87 CALM      29.88F
BURLINGTON VT  CLOUDY    70  66  87 CALM      29.90F
MT. WASHINGTON MOCLDY    54  48  82 W20         N/A
$$

NYZ052-076-290700-
EASTERN NEW YORK

CITY           SKY/WX    TMP DP  RH WIND       PRES   REMARKS
ALBANY         CLOUDY    71  65  81 E5        29.89S
6HR MIN TEMP:  71; 6HR MAX TEMP:  80;

NEW YORK CITY  LGT RAIN  78  72  81 E3        29.86S
6HR MIN TEMP:  78; 6HR MAX TEMP:  83; 6HR PCP:  0.01;

$$

ANZALL-290700-
MARINE OBSERVATIONS

STATION/POSITION TIME  TEMP    WIND        PRES    VSBY  WAVE
                       AIR SEA DIR/SP/G                  HT/PER
                 (UTC) (F)     (DEG/KT/KT) (MB)    (MI)  (FT/S)
BOSTON BUOY      0550   72 71  160/  8/ 10 1010.9S         1/ 3
BUZZARDS BAY     0500   74     190/  6/  7 1012.3F
NANTUCKET SOUND  0550   73 74  200/  8/  8 1011.8S         0
MASS BAY-STELLWA 0504   72 70  180/  8/  8 1010.7F  1 7/8
ISLE OF SHOALS   0500   74     110/  3/  3 1010.6F
S OF BLOCK IS    0525      75                N/A           1/ 6
$$

......................KEY.........................
  SKY/WX - SKY CONDITION/PRESENT WEATHER
  TMP    - TEMPERATURE IN FAHRENHEIT
  DWPT   - DEWPOINT IN FAHRENHEIT
  RH     - RELATIVE HUMIDITY IN PERCENT
  WIND   - DIRECTION AND SPEED IN MPH
  PRES   - MEAN SEA LEVEL PRESSURE IN INCHES OF HG
  WCI    - WIND CHILL INDEX
  VSB    - VISIBILITY IN MILES
  HX     - HEAT INDEX
  TC     - TEMPERATURE IN CELSIUS
  VRB    - VARIABLE WIND DIRECTION
  N/A    - NOT AVAILABLE




USA.gov is the U.S. government's official web portal to all federal, state and local government web resources and services.